Hourly Weather Roundup
Issued by NWS Central Illinois

Home | Current Version | Previous Version | Text Only | Print | Product List | Glossary On
Versions: 1 2 3 4 5 6 7 8 9 10 11 12 13 14 15 16 17 18 19 20 21 22 23 24 25 26 27 28 29 30 31 32 33 34 35 36 37 38 39 40 41 42 43 44 45 46 47 48 49 50
000
NZUS43 KILX 290010
HWRILX

AREA WEATHER ROUNDUP
NATIONAL WEATHER SERVICE, LINCOLN IL
700 PM CDT TUE JUL 28 2015


CITY           SKY/WX    TMP DP  RH WIND       PRES   REMARKS
BLOOMINGTON    CLOUDY    78  73  84 S3        29.94S HX  80
6HR MIN TEMP:  72; 6HR MAX TEMP:  89; 6HR PCP:  0.44;

CHAMPAIGN      CLOUDY    78  74  87 CALM      29.93R HX  81
6HR MIN TEMP:  75; 6HR MAX TEMP:  92; 6HR PCP:  0.34;

DANVILLE       PTSUNNY   81  76  84 W3        29.90R HX  87
6HR MIN TEMP:  81; 6HR MAX TEMP:  89;

DECATUR        CLOUDY    79  73  82 CALM      29.92F HX  82
6HR MIN TEMP:  75; 6HR MAX TEMP:  92; 6HR PCP:  0.01;

EFFINGHAM      PTSUNNY   79  75  87 CALM      29.93S HX  82
FLORA          MOSUNNY   90  76  63 S7        29.91R HX 101
6HR MIN TEMP:  88; 6HR MAX TEMP:  93;

GALESBURG      PTSUNNY   88  81  80 CALM      29.91R HX 105
JACKSONVILLE   SUNNY     92  80  67 S3        29.89R HX 110
6HR MIN TEMP:  91; 6HR MAX TEMP:  95;

LACON          CLOUDY    79  74  87 CALM      29.90F HX  82
6HR MIN TEMP:  72; 6HR MAX TEMP:  79; 6HR PCP:  0.03;

LAWRENCEVILLE  MOSUNNY   89  78  70 CALM      29.92R HX 103
6HR MIN TEMP:  89; 6HR MAX TEMP:  93;

LITCHFIELD     MOSUNNY   87  79  76 CALM      29.91S HX 101
$$


CITY           SKY/WX    TMP DP  RH WIND       PRES   REMARKS
LINCOLN        CLOUDY    82  72  69 S6        29.90F HX  87
6HR MIN TEMP:  79; 6HR MAX TEMP:  92;

MACOMB         MOSUNNY   90  78  67 SW5       29.91R HX 103
MATTOON        CLOUDY    78  72  81 CALM      29.92S HX  80
6HR MIN TEMP:  76; 6HR MAX TEMP:  93; 6HR PCP:  0.02;

MT CARMEL AP   MOSUNNY   90  77  66 CALM      29.90F HX 102
OLNEY-NOBLE AP PTSUNNY   88  79  74 CALM      29.92R HX 102
PARIS          PTSUNNY   82  77  84 SW5       29.92S HX  91
6HR MIN TEMP:  82; 6HR MAX TEMP:  91;

PEORIA         CLOUDY    85  75  72 E6        29.90S HX  93
6HR MIN TEMP:  80; 6HR MAX TEMP:  92; 6HR PCP: TRACE;

PONTIAC        CLOUDY    82  76  82 CALM      29.93S HX  88
RANTOUL        CLOUDY    82  76  83 W3        29.93R HX  89
ROBINSON       PTSUNNY   85  79  82 CALM      29.93R HX  98
6HR MIN TEMP:  85; 6HR MAX TEMP:  91;

SPRINGFIELD    MOSUNNY   87  77  72 SE9       29.90S HX  99
6HR MIN TEMP:  87; 6HR MAX TEMP:  96;

TAYLORVILLE    MOSUNNY   82  75  78 E6        29.92R HX  89
$$

...REGIONAL REPORTS...


CITY           SKY/WX    TMP DP  RH WIND       PRES   REMARKS
CHICAGO O`HARE CLOUDY    87  70  56 SW7       29.90R HX  92
KANKAKEE       PTSUNNY   85  76  75 W5        29.93R HX  95
MOLINE         CLOUDY    85  78  80 S5        29.88F HX  96
MOUNT STERLING NOT AVBL
MOUNT VERNON   CLOUDY    82  72  69 S3        29.93R HX  87
PITTSFIELD     SUNNY     91  81  72 S3        29.90S HX 109
QUINCY         SUNNY     90  80  72 S6        29.89S HX 107
ROCKFORD       PTSUNNY   83  73  72 SW7       29.93S HX  89
$$


CITY           SKY/WX    TMP DP  RH WIND       PRES   REMARKS
BURLINGTON     NOT AVBL
CEDAR RAPIDS   CLOUDY    74  71  91 NE8       29.89R
DES MOINES     TSTM      76  72  87 S18G25    29.88R FOG
KIRKSVILLE     SUNNY     90  76  63 S6        29.93R HX 101
OTTUMWA        TSTM      69  68  96 N40G52    29.96R VSB 1/2
ST LOUIS       CLOUDY    93  75  55 E8        29.90F HX 104
$$


CITY           SKY/WX    TMP DP  RH WIND       PRES   REMARKS
TERRE HAUTE    CLOUDY    86  75  69 S5        29.92R HX  95
EVANSVILLE     MOSUNNY   84  73  69 W18G29    29.94R HX  90
INDIANAPOLIS   PTSUNNY   86  72  62 E6        29.92R HX  92
LAFAYETTE      SUNNY     83  74  74 SE3       29.91R HX  89
MADISON        PTSUNNY   84  70  62 SW8       29.90F HX  88
MILWAUKEE      PTSUNNY   82  68  62 S9        29.92R HX  85
$$





USA.gov is the U.S. government's official web portal to all federal, state and local government web resources and services.